Paducah, KY

6:00 AM CDT on May 27, 2017 (GMT -0500)
Barkley Regional

Weather History for KPAH - March, 2012

Change the Weather History Date:

Thursday, March 8, 2012

  Actual Average Record
Temperature  
Mean Temperature 53 °F 46 °F  
Max Temperature 68 °F 56 °F 79 °F (1974)
Min Temperature 37 °F 36 °F 10 °F (1943)
Degree Days  
Heating Degree Days 12 19  
Month to date heating degree days 119 163  
Since 1 July heating degree days 2922 3459  
Cooling Degree Days 0 0  
Month to date cooling degree days 0 0  
Year to date cooling degree days 0 0  
Growing Degree Days 2 (Base 50)    
Moisture  
Dew Point 47 °F    
Average Humidity 78    
Maximum Humidity 100    
Minimum Humidity 55    
Precipitation  
Precipitation 1.51 in 0.12 in 2.73 in (1964)
Month to date precipitation 1.85 0.94  
Year to date precipitation 7.59 8.53  
Snow  
Snow 0.00 in 0.00 in 4.20 in (1994)
Month to date snowfall T 0.3  
Since 1 July snowfall 0.7 8.8  
Snow Depth 0.00 in    
Sea Level Pressure  
Sea Level Pressure 30.14 in    
Wind  
Wind Speed 12 mph (NNW)    
Max Wind Speed 25 mph    
Max Gust Speed 35 mph    
Visibility 6 miles    
Events Rain , Thunderstorm    
T = Trace of Precipitation, MM = Missing Value Source: NWS Daily Summary

Daily Weather History Graph

Daily Weather History Graph

Search for Another Location

Airport or City:

Trip Planner

Search our weather history database for the weather conditions in past years. The results will help you decide how hot, cold, wet, or windy it might be!

Date:

Astronomy

Mar. 08, 2012 Rise Set
Actual Time 6:15 AM CST 5:56 PM CST
Civil Twilight 5:49 AM CST 6:22 PM CST
Nautical Twilight 5:19 AM CST 6:52 PM CST
Astronomical Twilight 4:49 AM CST 7:22 PM CST
Moon 6:41 PM CST (3/8) 6:01 AM CST (3/8)
Length of Visible Light 12h 32m
Length of Day
11h 40m
Full, 100% of the Moon is Illuminated
Mar 8
Full
Mar 14
Last Quarter
Mar 22
New
Mar 30
First Quarter
Apr 6
Full

Hourly Weather History & Observations

Time (CST) Temp. Windchill Dew Point Humidity Pressure Visibility Wind Dir Wind Speed Gust Speed Precip Events Conditions
12:53 AM 66.9 °F - 53.1 °F 61% 30.05 in 10.0 mi South 11.5 mph 20.7 mph N/A   Overcast
1:53 AM 66.9 °F - 54.0 °F 63% 30.04 in 10.0 mi South 9.2 mph 21.9 mph N/A   Mostly Cloudy
2:53 AM 66.0 °F - 54.0 °F 65% 30.02 in 10.0 mi South 11.5 mph 20.7 mph N/A   Overcast
3:53 AM 64.9 °F - 55.0 °F 70% 30.01 in 10.0 mi South 11.5 mph 24.2 mph 0.00 in   Overcast
4:53 AM 62.1 °F - 57.0 °F 84% 30.02 in 4.0 mi SSW 10.4 mph 19.6 mph 0.05 in Rain Rain
5:53 AM 60.1 °F - 57.0 °F 90% 29.99 in 6.0 mi South 18.4 mph 28.8 mph 0.11 in Rain Light Rain
6:53 AM 60.1 °F - 57.0 °F 90% 30.01 in 8.0 mi South 13.8 mph 27.6 mph 0.03 in Rain Light Rain
7:06 AM 60.8 °F - 57.2 °F 88% 30.04 in 5.0 mi South 11.5 mph 19.6 mph 0.01 in Rain , Thunderstorm Thunderstorms and Rain
7:14 AM 59.0 °F - 57.2 °F 94% 30.01 in 1.8 mi South 20.7 mph 29.9 mph 0.12 in Rain , Thunderstorm Heavy Thunderstorms and Rain
7:22 AM 60.8 °F - 57.2 °F 88% 30.01 in 2.5 mi South 13.8 mph 33.4 mph 0.18 in Rain Rain
7:29 AM 60.8 °F - 57.2 °F 88% 30.00 in 6.0 mi South 19.6 mph 26.5 mph 0.19 in Rain Light Rain
7:53 AM 60.1 °F - 57.0 °F 90% 30.00 in 10.0 mi South 12.7 mph 21.9 mph 0.20 in Rain Light Rain
8:53 AM 57.9 °F - 55.9 °F 93% 30.03 in 5.0 mi South 11.5 mph 19.6 mph 0.07 in Rain Light Rain
9:26 AM 57.2 °F - 55.4 °F 94% 30.05 in 1.8 mi South 11.5 mph 20.7 mph 0.05 in Rain Heavy Rain
9:40 AM 57.2 °F - 55.4 °F 94% 30.09 in 1.0 mi WNW 6.9 mph - N/A Rain Heavy Rain
9:53 AM 57.9 °F - 57.0 °F 97% 30.09 in 1.2 mi North 5.8 mph - 0.30 in Rain Light Rain
9:57 AM 57.2 °F - 57.2 °F 100% 30.09 in 3.0 mi Variable 6.9 mph - 0.01 in Rain Light Rain
10:08 AM 55.4 °F - 55.4 °F 100% 30.10 in 2.5 mi North 12.7 mph - N/A Rain Heavy Rain
10:12 AM 55.4 °F - 53.6 °F 94% 30.10 in 2.0 mi North 13.8 mph - 0.05 in Rain Rain
10:15 AM 55.4 °F - 53.6 °F 94% 30.10 in 2.0 mi North 16.1 mph - 0.05 in Rain Rain
10:25 AM 55.4 °F - 53.6 °F 94% 30.10 in 5.0 mi North 12.7 mph - 0.06 in Rain Light Rain
10:32 AM 53.6 °F - 51.8 °F 94% 30.11 in 7.0 mi North 11.5 mph - 0.06 in Rain Light Rain
10:51 AM 53.6 °F - 51.8 °F 94% 30.12 in 1.8 mi North 16.1 mph 20.7 mph 0.08 in Rain Rain
10:52 AM 53.1 °F - 51.1 °F 93% 30.12 in 1.8 mi North 16.1 mph - 0.08 in Rain Rain
11:15 AM 51.8 °F - 48.2 °F 88% 30.14 in 3.0 mi North 23.0 mph 32.2 mph 0.05 in Rain Light Rain
11:53 AM 46.0 °F 39.0 °F 43.0 °F 89% 30.15 in 5.0 mi North 17.3 mph 32.2 mph 0.09 in Rain Rain
12:03 PM 44.6 °F 37.4 °F 42.8 °F 93% 30.16 in 4.0 mi North 16.1 mph 24.2 mph 0.04 in Rain Rain
12:40 PM 44.6 °F 39.2 °F 42.8 °F 93% 30.16 in 5.0 mi North 10.4 mph - 0.15 in Rain , Thunderstorm Thunderstorms and Rain
12:53 PM 45.0 °F 38.2 °F 43.0 °F 93% 30.16 in 4.0 mi North 15.0 mph - 0.18 in Rain , Thunderstorm Light Thunderstorms and Rain
1:25 PM 44.6 °F 36.9 °F 42.8 °F 93% 30.19 in 5.0 mi NNW 18.4 mph 25.3 mph 0.09 in Rain , Thunderstorm Light Thunderstorms and Rain
1:28 PM 44.6 °F 37.4 °F 42.8 °F 93% 30.19 in 4.0 mi NNW 16.1 mph 25.3 mph 0.10 in Rain , Thunderstorm Light Thunderstorms and Rain
1:48 PM 42.8 °F 34.8 °F 39.2 °F 87% 30.21 in 4.0 mi North 17.3 mph 25.3 mph 0.16 in Rain Rain
1:53 PM 43.0 °F 35.7 °F 39.9 °F 89% 30.22 in 6.0 mi North 15.0 mph 25.3 mph 0.17 in Rain Light Rain
2:06 PM 42.8 °F 33.3 °F 39.2 °F 87% 30.20 in 8.0 mi North 24.2 mph 29.9 mph 0.01 in Rain Light Rain
2:22 PM 42.8 °F 34.0 °F 37.4 °F 81% 30.21 in 9.0 mi North 20.7 mph 29.9 mph 0.02 in Rain Light Rain
2:53 PM 41.0 °F 33.5 °F 37.0 °F 86% 30.23 in 5.0 mi North 13.8 mph 21.9 mph 0.06 in Rain Rain
3:53 PM 41.0 °F 30.9 °F 37.9 °F 89% 30.28 in 4.0 mi NNW 24.2 mph 33.4 mph 0.14 in Rain Rain
4:53 PM 41.0 °F 33.9 °F 37.0 °F 86% 30.30 in 10.0 mi North 12.7 mph - 0.03 in   Overcast
5:53 PM 41.0 °F 35.2 °F 36.0 °F 82% 30.31 in 10.0 mi North 9.2 mph - 0.00 in   Overcast
6:53 PM 41.0 °F 34.7 °F 34.0 °F 76% 30.28 in 10.0 mi NNE 10.4 mph - N/A   Mostly Cloudy
7:53 PM 39.9 °F 33.4 °F 32.0 °F 73% 30.32 in 10.0 mi NNE 10.4 mph - N/A   Clear
8:53 PM 39.0 °F 34.0 °F 33.1 °F 79% 30.36 in 10.0 mi North 6.9 mph - N/A   Clear
9:53 PM 39.0 °F 34.0 °F 32.0 °F 76% 30.34 in 10.0 mi NNE 6.9 mph - N/A   Clear
10:53 PM 37.9 °F 32.7 °F 32.0 °F 79% 30.40 in 10.0 mi NNW 6.9 mph - N/A   Clear
11:53 PM 37.0 °F 32.4 °F 32.0 °F 82% 30.38 in 10.0 mi North 5.8 mph - N/A   Clear